Regional Weather Roundup
Issued by NWS

Home | Current Version | Previous Version | Text Only | Print | Product List | Glossary On
Versions: 1 2 3 4 5 6 7 8 9 10 11 12 13 14 15 16 17 18 19 20 21 22 23 24 25 26 27 28 29 30 31 32 33 34 35 36 37 38 39 40 41 42 43 44 45 46 47 48 49 50
000
ASUS44 KFWD 010203
RWRTX
NORTH TEXAS HOURLY WEATHER ROUNDUP
NATIONAL WEATHER SERVICE FORT WORTH TX
900 PM CDT WED AUG 31 2016

NOTE: "FAIR" INDICATES FEW OR NO CLOUDS BELOW 12,000 FEET WITH NO
SIGNIFICANT WEATHER AND/OR OBSTRUCTIONS TO VISIBILITY.

TXZ118-119-010300-
DALLAS/FORT WORTH METROPLEX

CITY           SKY/WX    TMP DP  RH WIND       PRES   REMARKS
DFW AIRPORT    PTCLDY    89  68  49 CALM      29.94R HX  93
DALLAS LOVE    PTCLDY    89  69  51 E5        29.94R HX  93
FTW MEACHAM    CLEAR     88  68  51 CALM      29.95R HX  91
DAL-EXECUTIVE  CLEAR     83  72  69 E5        29.94R
FTW-ALLIANCE   PTCLDY    83  69  62 CALM      29.95R
FTW-NAS-JRB    CLEAR     89  70  53 N3        29.95R HX  94
FTW-SPINKS     PTCLDY    82  74  77 CALM      29.97R
ARLINGTON      PTCLDY    83  72  69 SE3       29.95R
GRAND PRAIRIE  PTCLDY    88  68  51 CALM      29.96R HX  91
MESQUITE       PTCLDY    84  69  61 CALM      29.94R
LANCASTER      CLEAR     84  71  63 CALM      29.95R
$$

TXZ091>094-102>105-117-120-121-131>134-010300-
NORTH CENTRAL TEXAS

CITY           SKY/WX    TMP DP  RH WIND       PRES   REMARKS
SHRMAN/DENISON NOT AVBL
GAINESVILLE      N/A     79  67  67 N8        30.02R
BOWIE          TSTM      75  72  91 W7        30.05R
BRIDGEPORT     PTCLDY    81  70  69 N8        30.01R
DECATUR        PTCLDY    80  69  68 N6        30.01R
DENTON         MOCLDY    84  70  62 NE13      29.96R
MCKINNEY       PTCLDY    83  71  67 NE5       29.95R
GREENVILLE     CLOUDY    81  72  74 N7        29.96R
ROCKWALL       MOCLDY    84  72  65 SW5       29.94R HX  90
TERRELL        PTCLDY    85  71  63 NE3       29.95R HX  90
WAXAHACHIE     CLEAR     80  72  75 CALM      29.96R
CLEBURNE       PTCLDY    84  75  74 CALM      29.98R HX  92
GRANBURY       MOCLDY    84  70  63 SE10      29.99R
$$

TXZ083>090-098>101-113>116-127>130-139>142-154-155-010300-
WESTERN NORTH TEXAS

CITY           SKY/WX    TMP DP  RH WIND       PRES   REMARKS
WICHITA FALLS  CLOUDY    74  70  87 NE10      30.04R
WF-KICKAPOO    CLOUDY    78  71  77 N9G26     30.06R
VERNON         CLOUDY    77  67  72 NE5       30.08R
ABILENE        CLOUDY    80  69  69 W6        30.04R
ABILENE-DYESS  LGT RAIN  77  68  75 NE17G24   30.04R
CISCO          PTCLDY    82  72  69 NE6       30.03R
GRAHAM         PTCLDY    81  70  70 N12       30.01R
MINERAL WELLS  CLEAR     84  70  62 NE3       29.97R
STEPHENVILLE   CLOUDY    83  70  64 CALM      30.02R
COMANCHE       PTCLDY    82  69  66 NE3       30.00R
BROWNWOOD      MOCLDY    82  68  61 E6        30.01R
COLEMAN        CLEAR     82  67  60 N5        30.03R
$$

TXZ143>147-156>162-174-175-010300-
CENTRAL TEXAS

CITY           SKY/WX    TMP DP  RH WIND       PRES   REMARKS
WACO           CLEAR     83  72  69 E3        29.93R
WACO-MCGREGOR  CLEAR     84  72  67 NE3       29.94R
HILLSBORO      CLEAR     80  70  70 E5        29.95R
CORSICANA      CLEAR     84  72  67 CALM      29.95R
MEXIA          CLEAR     82  72  71 CALM      29.93R
HEARNE         CLEAR     81  74  78 CALM      29.93R
CAMERON        CLEAR     84  72  68 CALM      29.92R
KILLEEN        PTCLDY    84  71  63 NE5       29.95R
KILLEEN-SKYLRK CLEAR     83  73  72 NE3       29.96R
FORT HOOD      CLEAR     83  71  66 E3        29.93R
HAMILTON       CLEAR     82  70  68 NE3       30.00R
$$

TXZ095>097-106>112-122>126-135>138-148>153-164>167-010300-
EAST TEXAS

CITY           SKY/WX    TMP DP  RH WIND       PRES   REMARKS
PARIS          PTCLDY    81  70  69 NE6       29.97R
SULPHUR SPRNGS CLEAR     83  68  61 E3        29.97R
MOUNT PLEASANT CLEAR     83  71  67 CALM      29.95R
GILMER         CLEAR     80  73  79 CALM      29.94R
TYLER          CLEAR     85  72  65 CALM      29.94R HX  91
LONGVIEW       CLEAR     80  74  81 CALM      29.92R
MARSHALL       CLEAR     77  73  86 CALM      29.95R
ATHENS         CLEAR     81  72  74 CALM      29.93R
PALESTINE      CLEAR     82  74  76 NE3       29.93R
JACKSONVILLE   CLEAR     83  73  72 CALM      29.96R
HENDERSON      CLEAR     80  74  82 CALM      29.94R
CENTER         CLEAR     80  78  95 N3        29.93R
NACOGDOCHES    CLEAR    N/A N/A N/A CALM      29.90R
LUFKIN         CLEAR     78  75  90 N3        29.90R
$$

SUPPLEMENTAL OBSERVATIONS (CENTRAL)

CITY           SKY/WX    TMP DP  RH WIND       PRES   REMARKS
$$

SUPPLEMENTAL OBSERVATIONS (WEST)

CITY           SKY/WX    TMP DP  RH WIND       PRES   REMARKS
$$

SUPPLEMENTAL OBSERVATIONS (EAST)

CITY           SKY/WX    TMP DP  RH WIND       PRES   REMARKS
$$

SUPPLEMENTAL OBSERVATIONS ARE A COLLECTION OF AUTOMATED INSTRUMENTS
THAT ARE MAINTAINED BY A VARIETY OF FEDERAL AND STATE AGENCIES.
CERTAIN ELEMENTS...SUCH AS HUMIDITY VALUES AND SUSTAINED WIND
SPEEDS...MAY BE APPROXIMATED.





USA.gov is the U.S. government's official web portal to all federal, state and local government web resources and services.